{"data":{"norad_id":63872,"epoch":"2026-09-20T14:29:01.032288Z","epoch_age_seconds":138032,"freshness":"FRESH","line1":"1 63872U 25094J   26263.60348417  .00009053  00000+0  31889-3 0  9996","line2":"2 63872  69.9984 100.4520 0003317 269.5930  90.4865 15.29589029 76468","mean_motion":15.29589029,"eccentricity":0.0003317,"inclination_deg":69.9984,"raan_deg":100.452,"arg_perigee_deg":269.593,"mean_anomaly_deg":90.4865,"bstar":0.00031889,"rev_number":7646,"period_min":94.142934650978,"perigee_km":474.76606370759,"apogee_km":479.31378808023,"semimajor_km":6855.1769258939,"source":"CELESTRAK","updated_at":"2026-09-21T09:00:35.138705Z"}}